Time,TemperatureF,DewpointF,PressureIn,WindDirection,WindDirectionDegrees,WindSpeedMPH,WindSpeedGustMPH,Humidity,HourlyPrecipIn,Conditions,Clouds,dailyrainin,SoftwareType,DateUTC
2013-09-27 00:01:00,48.2,45.7,30.10,ENE,77,0.0,0.0,91,0.00,,---,0.00,VWS V14.01,2013-09-27 04:01:00,
2013-09-27 00:02:00,47.9,45.4,30.10,ENE,77,0.0,0.0,91,0.00,,---,0.00,VWS V14.01,2013-09-27 04:02:00,
2013-09-27 00:07:00,47.9,45.4,30.11,ENE,77,0.0,0.0,91,0.00,,---,0.00,VWS V14.01,2013-09-27 04:07:00,
2013-09-27 00:12:00,47.8,45.6,30.11,ENE,77,0.0,0.0,92,0.00,,---,0.00,VWS V14.01,2013-09-27 04:12:00,
2013-09-27 00:17:00,47.8,45.6,30.11,ENE,77,0.0,0.0,92,0.00,,---,0.00,VWS V14.01,2013-09-27 04:17:00,
2013-09-27 00:22:00,47.8,45.9,30.11,ENE,77,0.0,0.0,93,0.00,,---,0.00,VWS V14.01,2013-09-27 04:22:00,
2013-09-27 00:27:00,47.8,45.9,30.11,ENE,77,0.0,0.0,93,0.00,,---,0.00,VWS V14.01,2013-09-27 04:27:00,
2013-09-27 00:32:00,47.8,45.9,30.11,ENE,77,0.0,0.0,93,0.00,,---,0.00,VWS V14.01,2013-09-27 04:32:00,
2013-09-27 00:37:00,47.8,45.9,30.11,ENE,77,0.0,0.0,93,0.00,,---,0.00,VWS V14.01,2013-09-27 04:37:00,
2013-09-27 00:42:00,47.7,45.8,30.11,ENE,77,0.0,0.0,93,0.00,,---,0.00,VWS V14.01,2013-09-27 04:42:00,
2013-09-27 00:47:00,47.6,45.7,30.11,ENE,77,0.0,0.0,93,0.00,,---,0.00,VWS V14.01,2013-09-27 04:47:00,
2013-09-27 00:52:00,47.5,45.6,30.11,ENE,77,0.0,0.0,93,0.00,,---,0.00,VWS V14.01,2013-09-27 04:52:00,
2013-09-27 00:57:00,47.5,45.6,30.12,ENE,77,0.0,0.0,93,0.00,,---,0.00,VWS V14.01,2013-09-27 04:57:00,
2013-09-27 01:02:00,47.4,45.5,30.12,ENE,77,0.0,0.0,93,0.00,,---,0.00,VWS V14.01,2013-09-27 05:02:00,
2013-09-27 01:07:00,47.2,45.3,30.12,ENE,77,0.0,1.0,93,0.00,,---,0.00,VWS V14.01,2013-09-27 05:07:00,
2013-09-27 01:12:00,46.9,44.7,30.12,ENE,77,0.0,2.0,92,0.00,,---,0.00,VWS V14.01,2013-09-27 05:12:00,
2013-09-27 01:17:00,46.7,44.8,30.12,ENE,77,0.0,0.0,93,0.00,,---,0.00,VWS V14.01,2013-09-27 05:17:00,
2013-09-27 01:22:00,46.5,44.3,30.12,ENE,77,0.0,0.0,92,0.00,,---,0.00,VWS V14.01,2013-09-27 05:22:00,
2013-09-27 01:27:00,46.3,44.1,30.12,ENE,77,0.0,0.0,92,0.00,,---,0.00,VWS V14.01,2013-09-27 05:27:00,
2013-09-27 01:32:00,46.3,44.4,30.12,ENE,77,0.0,0.0,93,0.00,,---,0.00,VWS V14.01,2013-09-27 05:32:00,
2013-09-27 01:37:00,46.2,44.3,30.12,ENE,77,0.0,0.0,93,0.00,,---,0.00,VWS V14.01,2013-09-27 05:37:00,
2013-09-27 01:42:00,46.0,44.1,30.12,ENE,77,0.0,0.0,93,0.00,,---,0.00,VWS V14.01,2013-09-27 05:42:00,
2013-09-27 01:47:00,45.9,44.0,30.12,ENE,77,0.0,0.0,93,0.00,,---,0.00,VWS V14.01,2013-09-27 05:47:00,
2013-09-27 01:52:00,45.7,43.8,30.13,ENE,77,0.0,0.0,93,0.00,,---,0.00,VWS V14.01,2013-09-27 05:52:00,
2013-09-27 01:57:00,45.6,43.7,30.13,ENE,77,0.0,0.0,93,0.00,,---,0.00,VWS V14.01,2013-09-27 05:57:00,
2013-09-27 02:02:00,45.5,43.6,30.13,ENE,77,0.0,0.0,93,0.00,,---,0.00,VWS V14.01,2013-09-27 06:02:00,
2013-09-27 02:07:00,45.4,43.5,30.13,ENE,77,0.0,0.0,93,0.00,,---,0.00,VWS V14.01,2013-09-27 06:07:00,
2013-09-27 02:12:00,45.3,43.4,30.13,ENE,77,0.0,0.0,93,0.00,,---,0.00,VWS V14.01,2013-09-27 06:12:00,
2013-09-27 02:17:00,45.2,43.3,30.13,ENE,77,0.0,0.0,93,0.00,,---,0.00,VWS V14.01,2013-09-27 06:17:00,
2013-09-27 02:22:00,45.1,43.2,30.13,ENE,77,0.0,0.0,93,0.00,,---,0.00,VWS V14.01,2013-09-27 06:22:00,
2013-09-27 02:27:00,45.1,43.2,30.13,ENE,77,0.0,0.0,93,0.00,,---,0.00,VWS V14.01,2013-09-27 06:27:00,
2013-09-27 02:32:00,45.1,43.5,30.14,ENE,77,0.0,0.0,94,0.00,,---,0.00,VWS V14.01,2013-09-27 06:32:00,
2013-09-27 02:37:00,45.4,43.8,30.14,ENE,77,0.0,0.0,94,0.00,,---,0.00,VWS V14.01,2013-09-27 06:37:00,
2013-09-27 02:42:00,45.4,43.8,30.14,ENE,77,0.0,0.0,94,0.00,,---,0.00,VWS V14.01,2013-09-27 06:42:00,
2013-09-27 02:47:00,45.4,44.0,30.14,ENE,77,0.0,0.0,95,0.00,,---,0.00,VWS V14.01,2013-09-27 06:47:00,
2013-09-27 02:52:00,45.4,44.0,30.14,ENE,77,0.0,0.0,95,0.00,,---,0.00,VWS V14.01,2013-09-27 06:52:00,
2013-09-27 02:57:00,45.3,44.0,30.13,ENE,77,0.0,0.0,95,0.00,,---,0.00,VWS V14.01,2013-09-27 06:57:00,
2013-09-27 03:02:00,45.2,43.9,30.14,ENE,77,0.0,0.0,95,0.00,,---,0.00,VWS V14.01,2013-09-27 07:02:00,
2013-09-27 03:07:00,45.1,43.8,30.14,ENE,77,0.0,0.0,95,0.00,,---,0.00,VWS V14.01,2013-09-27 07:07:00,
2013-09-27 03:12:00,44.8,43.2,30.14,ENE,77,0.0,0.0,94,0.00,,---,0.00,VWS V14.01,2013-09-27 07:12:00,
2013-09-27 03:17:00,44.5,42.9,30.15,ENE,77,0.0,0.0,94,0.00,,---,0.00,VWS V14.01,2013-09-27 07:17:00,
2013-09-27 03:22:00,44.3,42.7,30.14,ENE,77,0.0,0.0,94,0.00,,---,0.00,VWS V14.01,2013-09-27 07:22:00,
2013-09-27 03:27:00,44.2,42.6,30.14,ENE,77,0.0,0.0,94,0.00,,---,0.00,VWS V14.01,2013-09-27 07:27:00,
2013-09-27 03:32:00,44.2,42.6,30.15,ENE,77,0.0,0.0,94,0.00,,---,0.00,VWS V14.01,2013-09-27 07:32:00,
2013-09-27 03:37:00,44.2,42.9,30.15,ENE,77,0.0,0.0,95,0.00,,---,0.00,VWS V14.01,2013-09-27 07:37:00,
2013-09-27 03:43:00,44.2,42.9,30.15,ENE,77,0.0,0.0,95,0.00,,---,0.00,VWS V14.01,2013-09-27 07:43:00,
2013-09-27 03:48:00,43.9,42.3,30.15,ENE,77,0.0,0.0,94,0.00,,---,0.00,VWS V14.01,2013-09-27 07:48:00,
2013-09-27 03:49:00,43.8,42.2,30.15,ENE,77,0.0,0.0,94,0.00,,---,0.00,VWS V14.01,2013-09-27 07:49:00,
2013-09-27 03:54:00,43.6,42.0,30.15,ENE,77,0.0,0.0,94,0.00,,---,0.00,VWS V14.01,2013-09-27 07:54:00,
2013-09-27 03:59:00,43.5,42.2,30.15,ENE,77,0.0,0.0,95,0.00,,---,0.00,VWS V14.01,2013-09-27 07:59:00,
2013-09-27 04:04:00,43.4,42.1,30.15,ENE,77,0.0,0.0,95,0.00,,---,0.00,VWS V14.01,2013-09-27 08:04:00,
2013-09-27 04:09:00,43.4,42.1,30.15,ENE,77,0.0,0.0,95,0.00,,---,0.00,VWS V14.01,2013-09-27 08:09:00,
2013-09-27 04:14:00,43.3,42.0,30.15,ENE,77,0.0,0.0,95,0.00,,---,0.00,VWS V14.01,2013-09-27 08:14:00,
2013-09-27 04:19:00,43.3,42.0,30.15,ENE,77,0.0,0.0,95,0.00,,---,0.00,VWS V14.01,2013-09-27 08:19:00,
2013-09-27 04:24:00,43.1,41.8,30.16,ENE,77,0.0,0.0,95,0.00,,---,0.00,VWS V14.01,2013-09-27 08:24:00,
2013-09-27 04:29:00,42.9,41.6,30.16,ENE,77,0.0,0.0,95,0.00,,---,0.00,VWS V14.01,2013-09-27 08:29:00,
2013-09-27 04:34:00,42.7,41.4,30.16,ENE,77,0.0,0.0,95,0.00,,---,0.00,VWS V14.01,2013-09-27 08:34:00,
2013-09-27 04:40:00,42.6,41.3,30.16,ENE,77,0.0,0.0,95,0.00,,---,0.00,VWS V14.01,2013-09-27 08:40:00,
2013-09-27 04:45:00,42.5,41.2,30.16,ENE,77,0.0,0.0,95,0.00,,---,0.00,VWS V14.01,2013-09-27 08:45:00,
2013-09-27 04:50:00,42.4,41.1,30.16,ENE,77,0.0,0.0,95,0.00,,---,0.00,VWS V14.01,2013-09-27 08:50:00,
2013-09-27 04:55:00,42.4,41.1,30.16,ENE,77,0.0,0.0,95,0.00,,---,0.00,VWS V14.01,2013-09-27 08:55:00,
2013-09-27 05:00:00,42.3,41.0,30.16,ENE,77,0.0,0.0,95,0.00,,---,0.00,VWS V14.01,2013-09-27 09:00:00,
2013-09-27 05:05:00,42.2,40.9,30.16,ENE,77,0.0,0.0,95,0.00,,---,0.00,VWS V14.01,2013-09-27 09:05:00,
2013-09-27 05:10:00,42.1,40.8,30.16,ENE,77,0.0,0.0,95,0.00,,---,0.00,VWS V14.01,2013-09-27 09:10:00,
2013-09-27 05:15:00,42.0,40.7,30.16,ENE,77,0.0,0.0,95,0.00,,---,0.00,VWS V14.01,2013-09-27 09:15:00,
2013-09-27 05:20:00,41.9,40.6,30.16,ENE,77,0.0,0.0,95,0.00,,---,0.00,VWS V14.01,2013-09-27 09:20:00,
2013-09-27 05:25:00,41.9,40.6,30.16,ENE,77,0.0,0.0,95,0.00,,---,0.00,VWS V14.01,2013-09-27 09:25:00,
2013-09-27 05:30:00,41.8,40.5,30.16,ENE,77,0.0,0.0,95,0.00,,---,0.00,VWS V14.01,2013-09-27 09:30:00,
2013-09-27 05:35:00,41.7,40.4,30.16,ENE,77,0.0,0.0,95,0.00,,---,0.00,VWS V14.01,2013-09-27 09:35:00,
2013-09-27 05:40:00,41.7,40.4,30.16,ENE,77,0.0,0.0,95,0.00,,---,0.00,VWS V14.01,2013-09-27 09:40:00,
2013-09-27 05:45:00,41.6,40.3,30.16,ENE,77,0.0,0.0,95,0.00,,---,0.00,VWS V14.01,2013-09-27 09:45:00,
2013-09-27 05:50:00,41.6,40.3,30.17,ENE,77,0.0,0.0,95,0.00,,---,0.00,VWS V14.01,2013-09-27 09:50:00,
2013-09-27 05:55:00,41.7,40.4,30.17,ENE,77,1.0,2.0,95,0.00,,---,0.00,VWS V14.01,2013-09-27 09:55:00,
2013-09-27 06:00:00,42.4,41.3,30.17,ENE,77,1.0,3.0,96,0.00,,---,0.00,VWS V14.01,2013-09-27 10:00:00,
2013-09-27 06:05:00,43.2,42.4,30.16,ENE,77,0.0,1.0,97,0.00,,---,0.00,VWS V14.01,2013-09-27 10:05:00,
2013-09-27 06:10:00,43.7,42.9,30.17,ENE,77,2.0,2.0,97,0.00,,---,0.00,VWS V14.01,2013-09-27 10:10:00,
2013-09-27 06:15:00,43.8,43.0,30.17,ENE,77,0.0,0.0,97,0.00,,---,0.00,VWS V14.01,2013-09-27 10:15:00,
2013-09-27 06:20:00,43.8,42.7,30.17,ENE,77,0.0,0.0,96,0.00,,---,0.00,VWS V14.01,2013-09-27 10:20:00,
2013-09-27 06:24:00,43.7,42.6,30.17,ENE,77,0.0,0.0,96,0.00,,---,0.00,VWS V14.01,2013-09-27 10:24:00,
2013-09-27 06:30:00,43.5,42.4,30.17,ENE,77,0.0,0.0,96,0.00,,---,0.00,VWS V14.01,2013-09-27 10:30:00,
2013-09-27 06:35:00,43.1,42.0,30.17,ENE,77,0.0,0.0,96,0.00,,---,0.00,VWS V14.01,2013-09-27 10:35:00,
2013-09-27 06:40:00,42.7,41.6,30.17,ENE,77,0.0,0.0,96,0.00,,---,0.00,VWS V14.01,2013-09-27 10:40:00,
2013-09-27 06:45:00,42.3,41.2,30.18,ENE,77,0.0,0.0,96,0.00,,---,0.00,VWS V14.01,2013-09-27 10:45:00,
2013-09-27 06:50:00,42.1,41.0,30.18,ENE,77,0.0,0.0,96,0.00,,---,0.00,VWS V14.01,2013-09-27 10:50:00,
2013-09-27 06:54:00,41.9,40.8,30.18,ENE,77,0.0,0.0,96,0.00,,---,0.00,VWS V14.01,2013-09-27 10:54:00,
2013-09-27 06:59:00,41.7,40.7,30.18,ENE,77,0.0,0.0,96,0.00,,---,0.00,VWS V14.01,2013-09-27 10:59:00,
2013-09-27 07:04:00,41.6,40.5,30.18,ENE,77,0.0,0.0,96,0.00,,---,0.00,VWS V14.01,2013-09-27 11:04:00,
2013-09-27 07:09:00,41.5,40.5,30.18,ENE,77,0.0,0.0,96,0.00,,---,0.00,VWS V14.01,2013-09-27 11:09:00,
2013-09-27 07:15:00,41.4,40.3,30.18,ENE,77,0.0,0.0,96,0.00,,---,0.00,VWS V14.01,2013-09-27 11:15:00,
2013-09-27 07:20:00,41.3,40.2,30.19,ENE,77,0.0,0.0,96,0.00,,---,0.00,VWS V14.01,2013-09-27 11:20:00,
2013-09-27 07:25:00,41.2,40.2,30.19,ENE,77,0.0,0.0,96,0.00,,---,0.00,VWS V14.01,2013-09-27 11:25:00,
2013-09-27 07:30:00,41.2,40.2,30.19,ENE,77,0.0,0.0,96,0.00,,---,0.00,VWS V14.01,2013-09-27 11:30:00,
2013-09-27 07:35:00,41.2,40.2,30.19,ENE,77,0.0,0.0,96,0.00,,---,0.00,VWS V14.01,2013-09-27 11:35:00,
2013-09-27 07:39:00,41.5,40.5,30.19,ENE,77,0.0,0.0,96,0.00,,---,0.00,VWS V14.01,2013-09-27 11:39:00,
2013-09-27 07:44:00,42.1,41.3,30.19,ENE,77,0.0,0.0,97,0.00,,---,0.00,VWS V14.01,2013-09-27 11:44:00,
2013-09-27 07:49:00,42.2,41.4,30.19,ENE,77,0.0,0.0,97,0.00,,---,0.00,VWS V14.01,2013-09-27 11:49:00,
2013-09-27 07:54:00,42.1,41.3,30.19,ENE,77,0.0,0.0,97,0.00,,---,0.00,VWS V14.01,2013-09-27 11:54:00,
2013-09-27 07:59:00,42.1,41.3,30.19,ENE,77,0.0,0.0,97,0.00,,---,0.00,VWS V14.01,2013-09-27 11:59:00,
2013-09-27 08:04:00,42.0,40.9,30.19,ENE,77,0.0,0.0,96,0.00,,---,0.00,VWS V14.01,2013-09-27 12:04:00,
2013-09-27 08:09:00,42.0,41.2,30.20,ENE,77,0.0,0.0,97,0.00,,---,0.00,VWS V14.01,2013-09-27 12:09:00,
2013-09-27 08:14:00,42.1,41.3,30.19,ENE,77,0.0,0.0,97,0.00,,---,0.00,VWS V14.01,2013-09-27 12:14:00,
2013-09-27 08:19:00,42.3,41.5,30.20,ENE,77,0.0,0.0,97,0.00,,---,0.00,VWS V14.01,2013-09-27 12:19:00,
2013-09-27 08:24:00,43.1,42.3,30.19,ENE,77,0.0,0.0,97,0.00,,---,0.00,VWS V14.01,2013-09-27 12:24:00,
2013-09-27 08:29:00,43.8,43.0,30.19,ENE,77,0.0,0.0,97,0.00,,---,0.00,VWS V14.01,2013-09-27 12:29:00,
2013-09-27 08:34:00,44.7,44.2,30.20,ENE,77,0.0,0.0,98,0.00,,---,0.00,VWS V14.01,2013-09-27 12:34:00,
2013-09-27 08:39:00,45.5,45.0,30.20,ENE,77,0.0,0.0,98,0.00,,---,0.00,VWS V14.01,2013-09-27 12:39:00,
2013-09-27 08:44:00,46.3,45.8,30.20,ENE,77,0.0,0.0,98,0.00,,---,0.00,VWS V14.01,2013-09-27 12:44:00,
2013-09-27 08:49:00,47.3,46.8,30.20,ENE,77,0.0,0.0,98,0.00,,---,0.00,VWS V14.01,2013-09-27 12:49:00,
2013-09-27 08:54:00,48.4,47.9,30.20,ENE,77,0.0,0.0,98,0.00,,---,0.00,VWS V14.01,2013-09-27 12:54:00,
2013-09-27 08:59:00,49.6,49.1,30.20,ENE,77,0.0,0.0,98,0.00,,---,0.00,VWS V14.01,2013-09-27 12:59:00,
2013-09-27 09:04:00,50.3,49.8,30.20,ENE,77,0.0,0.0,98,0.00,,---,0.00,VWS V14.01,2013-09-27 13:04:00,
2013-09-27 09:09:00,50.9,50.4,30.20,ENE,77,0.0,0.0,98,0.00,,---,0.00,VWS V14.01,2013-09-27 13:09:00,
2013-09-27 09:14:00,51.5,51.0,30.20,ENE,77,0.0,0.0,98,0.00,,---,0.00,VWS V14.01,2013-09-27 13:14:00,
2013-09-27 09:19:00,52.1,51.5,30.20,ENE,77,0.0,0.0,98,0.00,,---,0.00,VWS V14.01,2013-09-27 13:19:00,
2013-09-27 09:24:00,52.6,52.0,30.20,ENE,77,0.0,0.0,98,0.00,,---,0.00,VWS V14.01,2013-09-27 13:24:00,
2013-09-27 09:29:00,53.3,52.8,30.20,ENE,77,0.0,0.0,98,0.00,,---,0.00,VWS V14.01,2013-09-27 13:29:00,
2013-09-27 09:34:00,54.1,53.5,30.20,ENE,77,0.0,0.0,98,0.00,,---,0.00,VWS V14.01,2013-09-27 13:34:00,
2013-09-27 09:39:00,55.1,54.5,30.20,ENE,77,0.0,0.0,98,0.00,,---,0.00,VWS V14.01,2013-09-27 13:39:00,
2013-09-27 09:44:00,55.9,55.3,30.20,ENE,77,0.0,0.0,98,0.00,,---,0.00,VWS V14.01,2013-09-27 13:44:00,
2013-09-27 09:49:00,56.5,55.9,30.20,ENE,77,0.0,0.0,98,0.00,,---,0.00,VWS V14.01,2013-09-27 13:49:00,
2013-09-27 09:54:00,57.3,56.7,30.20,ENE,77,0.0,1.0,98,0.00,,---,0.00,VWS V14.01,2013-09-27 13:54:00,
2013-09-27 09:59:00,58.1,57.8,30.20,SE,128,4.0,7.0,99,0.00,,---,0.00,VWS V14.01,2013-09-27 13:59:00,
2013-09-27 10:04:00,59.1,58.5,30.20,SE,142,6.0,8.0,98,0.00,,---,0.00,VWS V14.01,2013-09-27 14:04:00,
2013-09-27 10:09:00,60.4,58.7,30.20,SSE,164,2.0,4.0,94,0.00,,---,0.00,VWS V14.01,2013-09-27 14:09:00,
2013-09-27 10:14:00,61.8,57.2,30.20,SE,133,4.0,6.0,85,0.00,,---,0.00,VWS V14.01,2013-09-27 14:14:00,
2013-09-27 10:19:00,63.2,56.6,30.20,SE,141,4.0,6.0,79,0.00,,---,0.00,VWS V14.01,2013-09-27 14:19:00,
2013-09-27 10:24:00,64.3,55.8,30.20,SE,141,5.0,6.0,74,0.00,,---,0.00,VWS V14.01,2013-09-27 14:24:00,
2013-09-27 10:29:00,65.2,56.0,30.20,SE,142,7.0,7.0,72,0.00,,---,0.00,VWS V14.01,2013-09-27 14:29:00,
2013-09-27 10:34:00,66.0,56.0,30.20,South,169,4.0,8.0,70,0.00,,---,0.00,VWS V14.01,2013-09-27 14:34:00,
2013-09-27 10:39:00,66.7,56.2,30.20,SSE,153,1.0,8.0,69,0.00,,---,0.00,VWS V14.01,2013-09-27 14:39:00,
2013-09-27 10:44:00,67.3,56.0,30.21,SE,135,5.0,8.0,67,0.00,,---,0.00,VWS V14.01,2013-09-27 14:44:00,
2013-09-27 10:49:00,67.9,55.7,30.21,SSE,168,7.0,7.0,65,0.00,,---,0.00,VWS V14.01,2013-09-27 14:49:00,
2013-09-27 10:54:00,68.4,55.8,30.21,SSE,147,7.0,9.0,64,0.00,,---,0.00,VWS V14.01,2013-09-27 14:54:00,
2013-09-27 10:59:00,68.9,56.7,30.20,South,178,4.0,8.0,65,0.00,,---,0.00,VWS V14.01,2013-09-27 14:59:00,
2013-09-27 11:04:00,69.4,55.4,30.21,South,173,2.0,9.0,61,0.00,,---,0.00,VWS V14.01,2013-09-27 15:04:00,
2013-09-27 11:09:00,69.9,54.9,30.21,SSE,147,5.0,8.0,59,0.00,,---,0.00,VWS V14.01,2013-09-27 15:09:00,
2013-09-27 11:14:00,70.2,55.7,30.20,SSE,164,5.0,7.0,60,0.00,,---,0.00,VWS V14.01,2013-09-27 15:14:00,
2013-09-27 11:19:00,70.6,55.6,30.20,SSE,150,5.0,8.0,59,0.00,,---,0.00,VWS V14.01,2013-09-27 15:19:00,
2013-09-27 11:24:00,71.0,56.0,30.21,SSE,147,7.0,7.0,59,0.00,,---,0.00,VWS V14.01,2013-09-27 15:24:00,
2013-09-27 11:29:00,71.5,56.0,30.20,SSE,166,4.0,7.0,58,0.00,,---,0.00,VWS V14.01,2013-09-27 15:29:00,
2013-09-27 11:34:00,71.9,54.9,30.21,SE,139,1.0,8.0,55,0.00,,---,0.00,VWS V14.01,2013-09-27 15:34:00,
2013-09-27 11:39:00,72.2,55.2,30.20,SE,144,5.0,7.0,55,0.00,,---,0.00,VWS V14.01,2013-09-27 15:39:00,
2013-09-27 11:44:00,72.6,56.0,30.20,East,91,1.0,4.0,56,0.00,,---,0.00,VWS V14.01,2013-09-27 15:44:00,
2013-09-27 11:49:00,73.0,55.4,30.20,ESE,107,4.0,6.0,54,0.00,,---,0.00,VWS V14.01,2013-09-27 15:49:00,
2013-09-27 11:54:00,73.5,54.3,30.20,SE,144,5.0,11.0,51,0.00,,---,0.00,VWS V14.01,2013-09-27 15:54:00,
2013-09-27 11:59:00,73.7,54.5,30.20,SE,134,6.0,9.0,51,0.00,,---,0.00,VWS V14.01,2013-09-27 15:59:00,
2013-09-27 12:04:00,74.0,53.7,30.19,SE,130,8.0,9.0,49,0.00,,---,0.00,VWS V14.01,2013-09-27 16:04:00,
2013-09-27 12:09:00,74.2,53.8,30.19,SE,130,6.0,8.0,49,0.00,,---,0.00,VWS V14.01,2013-09-27 16:09:00,
2013-09-27 12:14:00,74.3,53.4,30.19,ESE,104,6.0,12.0,48,0.00,,---,0.00,VWS V14.01,2013-09-27 16:14:00,
2013-09-27 12:19:00,74.3,53.4,30.19,SSE,155,5.0,12.0,48,0.00,,---,0.00,VWS V14.01,2013-09-27 16:19:00,
2013-09-27 12:24:00,74.7,54.8,30.19,ESE,120,6.0,7.0,50,0.00,,---,0.00,VWS V14.01,2013-09-27 16:24:00,
2013-09-27 12:29:00,75.0,54.0,30.19,ESE,107,4.0,8.0,48,0.00,,---,0.00,VWS V14.01,2013-09-27 16:29:00,
2013-09-27 12:34:00,75.2,53.6,30.19,SE,130,11.0,11.0,47,0.00,,---,0.00,VWS V14.01,2013-09-27 16:34:00,
2013-09-27 12:39:00,75.2,54.2,30.19,SSE,153,4.0,10.0,48,0.00,,---,0.00,VWS V14.01,2013-09-27 16:39:00,
2013-09-27 12:44:00,75.4,53.8,30.19,SE,126,6.0,9.0,47,0.00,,---,0.00,VWS V14.01,2013-09-27 16:44:00,
2013-09-27 12:49:00,75.5,53.9,30.19,SE,146,7.0,11.0,47,0.00,,---,0.00,VWS V14.01,2013-09-27 16:49:00,
2013-09-27 12:54:00,75.6,54.5,30.19,SE,132,8.0,9.0,48,0.00,,---,0.00,VWS V14.01,2013-09-27 16:54:00,
2013-09-27 12:59:00,75.7,54.6,30.19,East,80,6.0,9.0,48,0.00,,---,0.00,VWS V14.01,2013-09-27 16:59:00,
2013-09-27 13:04:00,75.8,54.2,30.19,ESE,112,2.0,8.0,47,0.00,,---,0.00,VWS V14.01,2013-09-27 17:04:00,
2013-09-27 13:09:00,75.9,54.8,30.19,SE,126,2.0,9.0,48,0.00,,---,0.00,VWS V14.01,2013-09-27 17:09:00,
2013-09-27 13:14:00,76.3,54.0,30.18,SSE,163,7.0,9.0,46,0.00,,---,0.00,VWS V14.01,2013-09-27 17:14:00,
2013-09-27 13:19:00,76.4,54.1,30.18,SE,136,10.0,10.0,46,0.00,,---,0.00,VWS V14.01,2013-09-27 17:19:00,
2013-09-27 13:24:00,76.5,53.6,30.18,South,175,5.0,9.0,45,0.00,,---,0.00,VWS V14.01,2013-09-27 17:24:00,
2013-09-27 13:26:00,76.6,53.7,30.18,SE,137,5.0,12.0,45,0.00,,---,0.00,VWS V14.01,2013-09-27 17:26:00,
2013-09-27 13:31:00,76.7,54.4,30.18,South,173,6.0,8.0,46,0.00,,---,0.00,VWS V14.01,2013-09-27 17:31:00,
2013-09-27 13:36:00,77.0,54.7,30.18,SE,126,11.0,11.0,46,0.00,,---,0.00,VWS V14.01,2013-09-27 17:36:00,
2013-09-27 13:41:00,77.2,53.6,30.18,SE,144,12.0,13.0,44,0.00,,---,0.00,VWS V14.01,2013-09-27 17:41:00,
2013-09-27 13:46:00,77.1,54.2,30.17,East,92,2.0,7.0,45,0.00,,---,0.00,VWS V14.01,2013-09-27 17:46:00,
2013-09-27 13:51:00,77.3,53.7,30.17,South,173,8.0,12.0,44,0.00,,---,0.00,VWS V14.01,2013-09-27 17:51:00,
2013-09-27 13:56:00,77.3,53.1,30.17,SSE,150,7.0,10.0,43,0.00,,---,0.00,VWS V14.01,2013-09-27 17:56:00,
2013-09-27 14:01:00,77.4,53.2,30.17,SE,146,6.0,11.0,43,0.00,,---,0.00,VWS V14.01,2013-09-27 18:01:00,
2013-09-27 14:06:00,77.6,53.4,30.17,East,90,2.0,11.0,43,0.00,,---,0.00,VWS V14.01,2013-09-27 18:06:00,
2013-09-27 14:11:00,77.9,54.3,30.17,ESE,120,5.0,8.0,44,0.00,,---,0.00,VWS V14.01,2013-09-27 18:11:00,
2013-09-27 14:16:00,77.9,53.0,30.17,SE,139,4.0,11.0,42,0.00,,---,0.00,VWS V14.01,2013-09-27 18:16:00,
2013-09-27 14:21:00,78.1,55.0,30.17,East,99,1.0,8.0,45,0.00,,---,0.00,VWS V14.01,2013-09-27 18:21:00,
2013-09-27 14:26:00,78.2,53.9,30.16,ESE,112,5.0,12.0,43,0.00,,---,0.00,VWS V14.01,2013-09-27 18:26:00,
2013-09-27 14:31:00,78.1,54.4,30.16,East,101,4.0,9.0,44,0.00,,---,0.00,VWS V14.01,2013-09-27 18:31:00,
2013-09-27 14:36:00,78.4,54.1,30.16,SE,129,5.0,10.0,43,0.00,,---,0.00,VWS V14.01,2013-09-27 18:36:00,
2013-09-27 14:41:00,78.3,54.6,30.16,ESE,115,4.0,9.0,44,0.00,,---,0.00,VWS V14.01,2013-09-27 18:41:00,
2013-09-27 14:46:00,78.2,55.1,30.16,SSE,163,6.0,9.0,45,0.00,,---,0.00,VWS V14.01,2013-09-27 18:46:00,
2013-09-27 14:51:00,78.5,56.0,30.16,East,84,4.0,6.0,46,0.00,,---,0.00,VWS V14.01,2013-09-27 18:51:00,
2013-09-27 14:56:00,78.4,54.1,30.16,SE,144,8.0,11.0,43,0.00,,---,0.00,VWS V14.01,2013-09-27 18:56:00,
2013-09-27 15:01:00,78.5,55.4,30.16,SSE,160,6.0,6.0,45,0.00,,---,0.00,VWS V14.01,2013-09-27 19:01:00,
2013-09-27 15:06:00,78.7,54.3,30.15,SSE,156,4.0,7.0,43,0.00,,---,0.00,VWS V14.01,2013-09-27 19:06:00,
2013-09-27 15:11:00,78.8,56.3,30.15,East,84,1.0,9.0,46,0.00,,---,0.00,VWS V14.01,2013-09-27 19:11:00,
2013-09-27 15:16:00,79.1,54.7,30.15,ESE,122,4.0,8.0,43,0.00,,---,0.00,VWS V14.01,2013-09-27 19:16:00,
2013-09-27 15:21:00,79.2,54.8,30.14,SE,134,7.0,9.0,43,0.00,,---,0.00,VWS V14.01,2013-09-27 19:21:00,
2013-09-27 15:26:00,79.0,54.6,30.14,SSE,147,2.0,11.0,43,0.00,,---,0.00,VWS V14.01,2013-09-27 19:26:00,
2013-09-27 15:31:00,78.9,54.5,30.14,South,184,3.0,12.0,43,0.00,,---,0.00,VWS V14.01,2013-09-27 19:31:00,
2013-09-27 15:36:00,79.0,54.6,30.14,SSE,155,9.0,10.0,43,0.00,,---,0.00,VWS V14.01,2013-09-27 19:36:00,
2013-09-27 15:41:00,78.9,54.5,30.14,East,84,4.0,7.0,43,0.00,,---,0.00,VWS V14.01,2013-09-27 19:41:00,
2013-09-27 15:46:00,78.9,55.2,30.14,East,85,6.0,8.0,44,0.00,,---,0.00,VWS V14.01,2013-09-27 19:46:00,
2013-09-27 15:51:00,78.8,53.8,30.14,SSE,161,7.0,8.0,42,0.00,,---,0.00,VWS V14.01,2013-09-27 19:51:00,
2013-09-27 15:56:00,78.8,54.4,30.13,ESE,105,5.0,7.0,43,0.00,,---,0.00,VWS V14.01,2013-09-27 19:56:00,
2013-09-27 16:01:00,78.9,53.2,30.13,SE,142,7.0,12.0,41,0.00,,---,0.00,VWS V14.01,2013-09-27 20:01:00,
2013-09-27 16:06:00,78.7,53.7,30.13,SE,142,4.0,12.0,42,0.00,,---,0.00,VWS V14.01,2013-09-27 20:06:00,
2013-09-27 16:11:00,78.8,55.1,30.13,East,82,4.0,9.0,44,0.00,,---,0.00,VWS V14.01,2013-09-27 20:11:00,
2013-09-27 16:16:00,78.8,55.1,30.12,East,92,5.0,7.0,44,0.00,,---,0.00,VWS V14.01,2013-09-27 20:16:00,
2013-09-27 16:21:00,78.9,55.2,30.12,SE,132,9.0,9.0,44,0.00,,---,0.00,VWS V14.01,2013-09-27 20:21:00,
2013-09-27 16:26:00,79.1,54.7,30.12,SSE,155,5.0,9.0,43,0.00,,---,0.00,VWS V14.01,2013-09-27 20:26:00,
2013-09-27 16:31:00,79.1,54.7,30.12,ENE,76,4.0,6.0,43,0.00,,---,0.00,VWS V14.01,2013-09-27 20:31:00,
2013-09-27 16:36:00,79.0,55.2,30.12,ESE,102,6.0,8.0,44,0.00,,---,0.00,VWS V14.01,2013-09-27 20:36:00,
2013-09-27 16:41:00,78.8,55.1,30.12,East,99,7.0,10.0,44,0.00,,---,0.00,VWS V14.01,2013-09-27 20:41:00,
2013-09-27 16:46:00,78.5,55.4,30.12,ESE,116,5.0,7.0,45,0.00,,---,0.00,VWS V14.01,2013-09-27 20:46:00,
2013-09-27 16:51:00,78.2,56.3,30.12,ENE,63,7.0,8.0,47,0.00,,---,0.00,VWS V14.01,2013-09-27 20:51:00,
2013-09-27 16:56:00,77.6,55.8,30.12,ENE,74,4.0,7.0,47,0.00,,---,0.00,VWS V14.01,2013-09-27 20:56:00,
2013-09-27 17:01:00,76.9,56.3,30.12,East,101,8.0,9.0,49,0.00,,---,0.00,VWS V14.01,2013-09-27 21:01:00,
2013-09-27 17:06:00,76.3,56.3,30.12,East,99,4.0,8.0,50,0.00,,---,0.00,VWS V14.01,2013-09-27 21:06:00,
2013-09-27 17:11:00,76.2,56.8,30.12,ENE,61,4.0,10.0,51,0.00,,---,0.00,VWS V14.01,2013-09-27 21:11:00,
2013-09-27 17:16:00,76.4,56.4,30.12,ESE,105,7.0,7.0,50,0.00,,---,0.00,VWS V14.01,2013-09-27 21:16:00,
2013-09-27 17:21:00,76.6,56.6,30.12,East,85,5.0,7.0,50,0.00,,---,0.00,VWS V14.01,2013-09-27 21:21:00,
2013-09-27 17:26:00,76.7,56.7,30.12,East,90,5.0,11.0,50,0.00,,---,0.00,VWS V14.01,2013-09-27 21:26:00,
2013-09-27 17:31:00,76.8,56.8,30.12,ENE,70,4.0,11.0,50,0.00,,---,0.00,VWS V14.01,2013-09-27 21:31:00,
2013-09-27 17:36:00,76.8,56.2,30.12,East,88,4.0,12.0,49,0.00,,---,0.00,VWS V14.01,2013-09-27 21:36:00,
2013-09-27 17:41:00,76.8,57.3,30.11,ENE,70,4.0,9.0,51,0.00,,---,0.00,VWS V14.01,2013-09-27 21:41:00,
2013-09-27 17:46:00,76.8,56.8,30.11,ENE,57,5.0,7.0,50,0.00,,---,0.00,VWS V14.01,2013-09-27 21:46:00,
2013-09-27 17:51:00,76.7,56.7,30.12,East,93,6.0,8.0,50,0.00,,---,0.00,VWS V14.01,2013-09-27 21:51:00,
2013-09-27 17:56:00,76.2,57.3,30.12,East,99,6.0,7.0,52,0.00,,---,0.00,VWS V14.01,2013-09-27 21:56:00,
2013-09-27 18:01:00,75.8,56.9,30.12,ESE,103,5.0,6.0,52,0.00,,---,0.00,VWS V14.01,2013-09-27 22:01:00,
2013-09-27 18:06:00,75.7,57.4,30.12,ESE,111,5.0,7.0,53,0.00,,---,0.00,VWS V14.01,2013-09-27 22:06:00,
2013-09-27 18:11:00,75.5,57.2,30.12,East,96,4.0,7.0,53,0.00,,---,0.00,VWS V14.01,2013-09-27 22:11:00,
2013-09-27 18:16:00,75.4,57.1,30.12,East,98,2.0,7.0,53,0.00,,---,0.00,VWS V14.01,2013-09-27 22:16:00,
2013-09-27 18:21:00,75.4,57.6,30.12,ENE,75,3.0,7.0,54,0.00,,---,0.00,VWS V14.01,2013-09-27 22:21:00,
2013-09-27 18:26:00,75.2,57.4,30.12,SE,136,6.0,7.0,54,0.00,,---,0.00,VWS V14.01,2013-09-27 22:26:00,
2013-09-27 18:31:00,75.0,57.2,30.12,East,82,5.0,7.0,54,0.00,,---,0.00,VWS V14.01,2013-09-27 22:31:00,
2013-09-27 18:36:00,74.8,57.6,30.12,East,83,6.0,8.0,55,0.00,,---,0.00,VWS V14.01,2013-09-27 22:36:00,
2013-09-27 18:41:00,74.5,57.8,30.12,ENE,77,3.0,7.0,56,0.00,,---,0.00,VWS V14.01,2013-09-27 22:41:00,
2013-09-27 18:46:00,74.3,57.6,30.12,ESE,109,2.0,7.0,56,0.00,,---,0.00,VWS V14.01,2013-09-27 22:46:00,
2013-09-27 18:51:00,74.0,57.8,30.12,ESE,103,1.0,6.0,57,0.00,,---,0.00,VWS V14.01,2013-09-27 22:51:00,
2013-09-27 18:56:00,73.7,58.0,30.11,East,90,5.0,7.0,58,0.00,,---,0.00,VWS V14.01,2013-09-27 22:56:00,
2013-09-27 19:01:00,73.4,57.7,30.11,East,86,4.0,7.0,58,0.00,,---,0.00,VWS V14.01,2013-09-27 23:01:00,
2013-09-27 19:06:00,73.0,58.3,30.12,ESE,106,2.0,5.0,60,0.00,,---,0.00,VWS V14.01,2013-09-27 23:06:00,
2013-09-27 19:11:00,72.7,58.0,30.11,East,80,3.0,5.0,60,0.00,,---,0.00,VWS V14.01,2013-09-27 23:11:00,
2013-09-27 19:16:00,72.4,58.2,30.11,SE,125,2.0,6.0,61,0.00,,---,0.00,VWS V14.01,2013-09-27 23:16:00,
2013-09-27 19:21:00,72.0,58.3,30.11,ESE,107,1.0,6.0,62,0.00,,---,0.00,VWS V14.01,2013-09-27 23:21:00,
2013-09-27 19:26:00,71.6,58.3,30.12,East,101,2.0,2.0,63,0.00,,---,0.00,VWS V14.01,2013-09-27 23:26:00,
2013-09-27 19:31:00,71.2,58.4,30.11,East,92,2.0,4.0,64,0.00,,---,0.00,VWS V14.01,2013-09-27 23:31:00,
2013-09-27 19:36:00,70.7,58.4,30.11,ESE,112,1.0,5.0,65,0.00,,---,0.00,VWS V14.01,2013-09-27 23:36:00,
2013-09-27 19:41:00,70.3,58.0,30.11,ESE,103,1.0,5.0,65,0.00,,---,0.00,VWS V14.01,2013-09-27 23:41:00,
2013-09-27 19:46:00,69.8,57.9,30.11,ESE,103,2.0,2.0,66,0.00,,---,0.00,VWS V14.01,2013-09-27 23:46:00,
2013-09-27 19:51:00,69.4,57.6,30.11,ESE,103,0.0,4.0,66,0.00,,---,0.00,VWS V14.01,2013-09-27 23:51:00,
2013-09-27 19:56:00,69.1,57.7,30.11,ESE,103,1.0,4.0,67,0.00,,---,0.00,VWS V14.01,2013-09-27 23:56:00,
2013-09-27 20:01:00,68.8,57.4,30.11,ESE,103,0.0,2.0,67,0.00,,---,0.00,VWS V14.01,2013-09-28 00:01:00,
2013-09-27 20:06:00,68.5,57.1,30.11,ESE,103,0.0,0.0,67,0.00,,---,0.00,VWS V14.01,2013-09-28 00:06:00,
2013-09-27 20:11:00,68.2,57.2,30.12,ESE,103,0.0,2.0,68,0.00,,---,0.00,VWS V14.01,2013-09-28 00:11:00,
2013-09-27 20:16:00,67.8,56.9,30.12,ESE,103,0.0,0.0,68,0.00,,---,0.00,VWS V14.01,2013-09-28 00:16:00,
2013-09-27 20:21:00,67.1,56.6,30.12,ESE,103,0.0,0.0,69,0.00,,---,0.00,VWS V14.01,2013-09-28 00:21:00,
2013-09-27 20:26:00,66.4,56.3,30.12,ESE,103,0.0,0.0,70,0.00,,---,0.00,VWS V14.01,2013-09-28 00:26:00,
2013-09-27 20:31:00,65.8,56.2,30.12,ESE,103,0.0,2.0,71,0.00,,---,0.00,VWS V14.01,2013-09-28 00:31:00,
2013-09-27 20:36:00,65.3,56.0,30.12,ESE,103,0.0,5.0,72,0.00,,---,0.00,VWS V14.01,2013-09-28 00:36:00,
2013-09-27 20:41:00,64.7,55.9,30.12,ESE,103,2.0,2.0,73,0.00,,---,0.00,VWS V14.01,2013-09-28 00:41:00,
2013-09-27 20:46:00,64.2,55.8,30.12,ESE,103,0.0,4.0,74,0.00,,---,0.00,VWS V14.01,2013-09-28 00:46:00,
2013-09-27 20:51:00,63.7,56.0,30.12,ESE,103,2.0,4.0,76,0.00,,---,0.00,VWS V14.01,2013-09-28 00:51:00,
2013-09-27 20:56:00,63.5,56.2,30.12,ESE,104,1.0,4.0,77,0.00,,---,0.00,VWS V14.01,2013-09-28 00:56:00,
2013-09-27 21:01:00,63.4,56.1,30.12,ESE,107,4.0,6.0,77,0.00,,---,0.00,VWS V14.01,2013-09-28 01:01:00,
2013-09-27 21:06:00,63.4,56.4,30.12,ESE,108,1.0,4.0,78,0.00,,---,0.00,VWS V14.01,2013-09-28 01:06:00,
2013-09-27 21:11:00,63.4,56.4,30.12,ESE,108,2.0,2.0,78,0.00,,---,0.00,VWS V14.01,2013-09-28 01:11:00,
2013-09-27 21:16:00,63.5,56.5,30.12,ESE,116,0.0,4.0,78,0.00,,---,0.00,VWS V14.01,2013-09-28 01:16:00,
2013-09-27 21:21:00,63.5,56.5,30.12,ESE,116,2.0,2.0,78,0.00,,---,0.00,VWS V14.01,2013-09-28 01:21:00,
2013-09-27 21:26:00,63.5,56.9,30.13,ESE,121,1.0,5.0,79,0.00,,---,0.00,VWS V14.01,2013-09-28 01:26:00,
2013-09-27 21:31:00,63.6,56.6,30.13,ESE,121,0.0,4.0,78,0.00,,---,0.00,VWS V14.01,2013-09-28 01:31:00,
2013-09-27 21:36:00,63.6,56.6,30.13,SE,134,0.0,4.0,78,0.00,,---,0.00,VWS V14.01,2013-09-28 01:36:00,
2013-09-27 21:41:00,63.6,56.6,30.13,SE,134,0.0,4.0,78,0.00,,---,0.00,VWS V14.01,2013-09-28 01:41:00,
2013-09-27 21:46:00,63.6,56.6,30.13,SE,128,2.0,4.0,78,0.00,,---,0.00,VWS V14.01,2013-09-28 01:46:00,
2013-09-27 21:51:00,63.6,56.6,30.13,ESE,123,4.0,5.0,78,0.00,,---,0.00,VWS V14.01,2013-09-28 01:51:00,
2013-09-27 21:56:00,63.5,56.5,30.13,ESE,121,2.0,4.0,78,0.00,,---,0.00,VWS V14.01,2013-09-28 01:56:00,
2013-09-27 22:02:00,63.4,56.4,30.13,ESE,119,0.0,5.0,78,0.00,,---,0.00,VWS V14.01,2013-09-28 02:02:00,
2013-09-27 22:07:00,63.2,56.2,30.13,ESE,120,4.0,5.0,78,0.00,,---,0.00,VWS V14.01,2013-09-28 02:07:00,
2013-09-27 22:12:00,63.0,56.0,30.13,ESE,120,2.0,5.0,78,0.00,,---,0.00,VWS V14.01,2013-09-28 02:12:00,
2013-09-27 22:17:00,62.8,56.2,30.13,ESE,121,1.0,6.0,79,0.00,,---,0.00,VWS V14.01,2013-09-28 02:17:00,
2013-09-27 22:22:00,62.6,56.0,30.13,ESE,121,2.0,5.0,79,0.00,,---,0.00,VWS V14.01,2013-09-28 02:22:00,
2013-09-27 22:27:00,62.5,55.6,30.14,ESE,121,0.0,2.0,78,0.00,,---,0.00,VWS V14.01,2013-09-28 02:27:00,
2013-09-27 22:32:00,62.3,55.4,30.14,ESE,121,0.0,0.0,78,0.00,,---,0.00,VWS V14.01,2013-09-28 02:32:00,
2013-09-27 22:37:00,62.1,55.2,30.14,ESE,121,0.0,0.0,78,0.00,,---,0.00,VWS V14.01,2013-09-28 02:37:00,
2013-09-27 22:42:00,61.9,55.0,30.14,ESE,121,0.0,0.0,78,0.00,,---,0.00,VWS V14.01,2013-09-28 02:42:00,
2013-09-27 22:47:00,61.7,55.1,30.14,ESE,121,0.0,0.0,79,0.00,,---,0.00,VWS V14.01,2013-09-28 02:47:00,
2013-09-27 22:52:00,61.4,54.8,30.14,ESE,121,0.0,0.0,79,0.00,,---,0.00,VWS V14.01,2013-09-28 02:52:00,
2013-09-27 22:57:00,61.0,54.5,30.14,ESE,121,0.0,2.0,79,0.00,,---,0.00,VWS V14.01,2013-09-28 02:57:00,
2013-09-27 23:02:00,60.7,54.5,30.14,ESE,121,0.0,1.0,80,0.00,,---,0.00,VWS V14.01,2013-09-28 03:02:00,
2013-09-27 23:07:00,60.3,54.1,30.14,ESE,121,1.0,1.0,80,0.00,,---,0.00,VWS V14.01,2013-09-28 03:07:00,
2013-09-27 23:12:00,60.0,53.8,30.14,ESE,121,0.0,1.0,80,0.00,,---,0.00,VWS V14.01,2013-09-28 03:12:00,
2013-09-27 23:17:00,59.7,53.9,30.14,ESE,121,0.0,4.0,81,0.00,,---,0.00,VWS V14.01,2013-09-28 03:17:00,
2013-09-27 23:22:00,59.4,53.6,30.14,ESE,121,0.0,4.0,81,0.00,,---,0.00,VWS V14.01,2013-09-28 03:22:00,
2013-09-27 23:27:00,59.1,53.6,30.14,ESE,121,2.0,2.0,82,0.00,,---,0.00,VWS V14.01,2013-09-28 03:27:00,
2013-09-27 23:32:00,58.9,53.8,30.14,ESE,121,0.0,4.0,83,0.00,,---,0.00,VWS V14.01,2013-09-28 03:32:00,
2013-09-27 23:37:00,58.7,53.6,30.14,ESE,121,0.0,0.0,83,0.00,,---,0.00,VWS V14.01,2013-09-28 03:37:00,
2013-09-27 23:42:00,58.6,53.8,30.14,ESE,121,0.0,2.0,84,0.00,,---,0.00,VWS V14.01,2013-09-28 03:42:00,
2013-09-27 23:47:00,58.4,53.6,30.14,ESE,121,2.0,4.0,84,0.00,,---,0.00,VWS V14.01,2013-09-28 03:47:00,
2013-09-27 23:52:00,58.3,53.8,30.14,ESE,122,1.0,4.0,85,0.00,,---,0.00,VWS V14.01,2013-09-28 03:52:00,
2013-09-27 23:57:00,58.2,54.0,30.15,SE,136,1.0,6.0,86,0.00,,---,0.00,VWS V14.01,2013-09-28 03:57:00,